Location: Tom
(33.0437°N, 96.9452°W)
Time: 09:25:28
(UTC-05:00)

Envisat - Pass Details

Date: 26 January 2019
Orbit: 764 x 766 km, 98.2° (Epoch: 17 April)

Event Time Altitude Azimuth Distance (km) Brightness Sun altitude
Rises 19:55:26 0° 188° (S) 3,213 6.4 -25.4°
Reaches altitude 10° 19:57:54 10° 197° (SSW) 2,291 5.7 -25.9°
Maximum altitude 20:02:29 35° 262° (W) 1,224 4.5 -26.9°
Drops below altitude 10° 20:07:07 10° 328° (NNW) 2,305 5.8 -27.8°
Sets 20:09:37 0° 337° (NNW) 3,235 6.5 -28.4°
